Change the Weather History Date:

Saturday, February 22, 2014

  Actual Average Record
Temperature  
Mean Temperature 42 °F -  
Max Temperature 63 °F 53 °F 78 °F (1977)
Min Temperature 21 °F 28 °F 1 °F (2013)
Degree Days  
Heating Degree Days 23    
Moisture  
Dew Point 16 °F    
Average Humidity 36    
Maximum Humidity 78    
Minimum Humidity 14    
Precipitation  
Precipitation 0.00 in - - ()
Sea Level Pressure  
Sea Level Pressure 29.86 in    
Wind  
Wind Speed 5 mph (NE)    
Max Wind Speed 12 mph    
Max Gust Speed 18 mph    
Visibility 10 miles    
Events      
Averages and records for this station are not official NWS values.
T = Trace of Precipitation, MM = Missing Value Source: NWS Daily Summary

Daily Weather History Graph

Daily Weather History Graph

Search for Another Location

Airport or City:

Trip Planner

Search our weather history database for the weather conditions in past years. The results will help you decide how hot, cold, wet, or windy it might be!

Date:

Astronomy

Feb. 22, 2014 Rise Set
Actual Time 7:18 AM CST 6:27 PM CST
Civil Twilight 6:52 AM CST 6:53 PM CST
Nautical Twilight 6:22 AM CST 7:23 PM CST
Astronomical Twilight 5:52 AM CST 7:53 PM CST
Moon 1:11 AM CST (2/22) 11:44 AM CST (2/22)
Length of Visible Light 12h 00m
Length of Day
11h 08m
Waning Gibbous, 50% of the Moon is Illuminated
Feb 22
Waning Gibbous
Mar 1
New
Mar 8
First Quarter
Mar 16
Full
Mar 23
Last Quarter

Hourly Weather History & Observations

Time (CST) Temp. Windchill Dew Point Humidity Pressure Visibility Wind Dir Wind Speed Gust Speed Precip Events Conditions
12:53 AM 42.1 °F 37.1 °F 10.0 °F 27% 29.85 in 10.0 mi South 8.1 mph - N/A   Clear
1:53 AM 36.0 °F - 10.9 °F 36% 29.84 in 10.0 mi Calm Calm - N/A   Clear
2:53 AM 34.0 °F - 12.0 °F 40% 29.83 in 10.0 mi Calm Calm - N/A   Clear
3:53 AM 30.0 °F - 14.0 °F 51% 29.83 in 10.0 mi Calm Calm - N/A   Clear
4:53 AM 27.0 °F 21.6 °F 17.1 °F 66% 29.83 in 10.0 mi West 4.6 mph - N/A   Clear
5:53 AM 24.1 °F - 16.0 °F 71% 29.86 in 10.0 mi Calm Calm - N/A   Clear
6:53 AM 21.9 °F 14.5 °F 16.0 °F 78% 29.89 in 10.0 mi SW 5.8 mph - N/A   Clear
7:53 AM 25.0 °F 18.1 °F 17.1 °F 72% 29.91 in 10.0 mi West 5.8 mph - N/A   Clear
8:53 AM 34.0 °F 31.0 °F 18.0 °F 52% 29.92 in 10.0 mi SW 3.5 mph - N/A   Clear
9:53 AM 44.1 °F 41.5 °F 18.0 °F 35% 29.90 in 10.0 mi WNW 4.6 mph - N/A   Clear
10:53 AM 55.0 °F - 15.1 °F 21% 29.88 in 10.0 mi North 10.4 mph - N/A   Clear
11:53 AM 59.0 °F - 14.0 °F 17% 29.86 in 10.0 mi North 9.2 mph - N/A   Clear
12:53 PM 57.9 °F - 12.0 °F 16% 29.85 in 10.0 mi NNE 11.5 mph 18.4 mph N/A   Clear
1:53 PM 61.0 °F - 12.9 °F 15% 29.83 in 10.0 mi NE 11.5 mph - N/A   Clear
2:53 PM 62.1 °F - 14.0 °F 15% 29.82 in 10.0 mi Variable 6.9 mph - N/A   Clear
3:53 PM 63.0 °F - 12.9 °F 14% 29.83 in 10.0 mi NE 9.2 mph - N/A   Clear
4:53 PM 62.1 °F - 14.0 °F 15% 29.83 in 10.0 mi Calm Calm - N/A   Clear
5:53 PM 57.9 °F - 15.1 °F 19% 29.84 in 10.0 mi ENE 8.1 mph - N/A   Clear
6:53 PM 50.0 °F - 16.0 °F 26% 29.86 in 10.0 mi East 5.8 mph - N/A   Clear
7:53 PM 48.0 °F - 17.1 °F 29% 29.86 in 10.0 mi East 10.4 mph - N/A   Clear
8:53 PM 48.0 °F - 19.0 °F 32% 29.85 in 10.0 mi East 6.9 mph - N/A   Clear
9:53 PM 46.0 °F 43.9 °F 19.9 °F 35% 29.86 in 10.0 mi East 4.6 mph - N/A   Clear
10:53 PM 43.0 °F 40.3 °F 19.9 °F 40% 29.86 in 10.0 mi East 4.6 mph - N/A   Clear
11:53 PM 37.0 °F 31.6 °F 21.0 °F 52% 29.86 in 10.0 mi ENE 6.9 mph - N/A   Clear